www.pogodaiklimat.ru

Погода и климат >> Архив погоды >> Россия >> Якутия >> Оленек


АРХИВ ПОГОДЫ в Оленеке

Время (UTC), дата Ветер
(напр.,м/с)
 
Видим.   Явления Облачность Т
(С)
Тd
(С)
f
(%)
Тe
(С)
Тes
(С)
Комфортность P
(гПа)
Po
(гПа)
Тmin
(С)
Tmax
(С)
R
(мм)
R24
(мм)
S
(см)
09 13.02 СЗ 2 20 км 8/0
[Ci sp]
-32.4 -35.5 74 -40 -40 опасность
обморожения
1010.8 979.9
12 13.02 СЗ 1 н/о н/о -29.2 -32.6 72 -33 -33 опасность
обморожения
1010.9 980.4 -29.2
15 13.02 штиль 0 н/о н/о -26.1 -29.2 75 -26 -26 1009.9 979.8
18 13.02 СЗ 1 н/о н/о -23.9 -26.8 77 -27 -27 1009.1 979.3
21 13.02 З 2 н/о н/о -21.4 -24.1 79 -27 -27 1008.4 978.8
00 14.02 З 2 4000 м слаб. снег 10/8 270 м
[Frnb As op]
-18.2 -20.8 80 -24 -24 1007.6 978.5 -30.1 0.5 27
03 14.02 З 1 2000 м слаб. снег 10/6 180 м
[Frnb As op]
-15.5 -17.4 85 -18 -18 1006.4 977.6
06 14.02 З 2 2000 м слаб. снег 10/8 180 м
[Frnb As op]
-12.8 -14.1 90 -17 -17 1004.7 976.2
09 14.02 З 4 4000 м слаб. снег 10/6 240 м
[Frnb As op]
-11.7 -13.0 90 -19 -19 1003.5 975.2
12 14.02 З 4 н/о н/о -11.0 -11.7 95 -18 -18 1001.9 973.7 -11.0
15 14.02 З 4 н/о н/о -11.1 -11.8 95 -18 -18 1000.5 972.4
18 14.02 З 3 н/о н/о -12.7 -14.3 88 -19 -19 1000.1 971.8
21 14.02 З 3 н/о н/о -13.0 -14.4 89 -19 -19 999.6 971.3
00 15.02 З 3 4000 м слаб. снег 10/6 300 м
[Frnb As op]
-13.4 -15.4 85 -20 -20 999.0 970.7 -13.4 0.9 32
03 15.02 ЮЗ 3 10 км слаб. снег 10/6 360 м
[Frnb As op]
-13.9 -16.6 80 -20 -20 997.5 969.2 -13.4
06 15.02 ЮЗ 3 50 км в посл. час снег 10/0
[Ac trans Cs]
-13.5 -16.2 80 -20 -20 995.7 967.4
09 15.02 ЮЗ 3 4000 м слаб. снег 10/6 360 м
[Frnb As op]
-13.8 -15.8 85 -20 -20 993.7 965.4
12 15.02 ЮЗ 2 н/о н/о -13.7 -15.5 86 -18 -18 991.5 963.3 -13.4
15 15.02 З 3 н/о н/о -13.1 -14.3 91 -19 -19 989.7 961.6
18 15.02 СЗ 4
{10}
н/о н/о -14.0 -16.2 83 -22 -22 991.8 963.6
21 15.02 З 4 н/о н/о -15.6 -17.4 86 -24 -24 995.8 967.3
00 16.02 З 2 н/о н/о -17.6 -20.0 81 -23 -23 999.2 970.4 -17.6
03 16.02 СЗ 3 н/о н/о -21.1 -25.0 71 -29 -29 1004.0 974.7 -21.1
06 16.02 З 2 н/о н/о -20.1 -24.8 66 -26 -26 1006.1 976.8
09 16.02 З 4 н/о н/о -21.2 -24.9 72 -30 -30 1008.3 978.8
12 16.02 З 3 н/о н/о -22.9 -25.9 76 -31 -31 опасность
обморожения
1009.8 980.1 -17.7
15 16.02 З 5 н/о н/о -23.2 -26.5 74 -34 -34 опасность
обморожения
1009.7 979.9
18 16.02 З 3 н/о н/о -23.6 -27.0 73 -32 -32 опасность
обморожения
1009.7 979.9
21 16.02 С 1 н/о н/о -24.6 -27.4 77 -28 -28 1009.5 979.5
00 17.02 штиль 0 н/о н/о -25.1 -27.6 80 -25 -25 1008.4 978.4 -25.4
03 17.02 штиль 0 н/о н/о -24.9 -28.0 75 -25 -25 1007.4 977.5 -25.8
06 17.02 В 1 н/о н/о -22.7 -26.0 74 -26 -26 1005.9 976.3
09 17.02 В 1 н/о н/о -23.1 -25.9 78 -26 -26 1005.1 975.4
12 17.02 ЮВ 2 н/о н/о -27.2 -30.0 77 -34 -34 опасность
обморожения
1005.2 975.1 -22.6
15 17.02 В 2 н/о н/о -28.6 -31.6 75 -36 -36 опасность
обморожения
1004.9 974.6
18 17.02 В 3 н/о н/о -29.1 -32.4 73 -39 -39 опасность
обморожения
1004.8 974.4
21 17.02 В 3 н/о н/о -29.0 -32.3 73 -38 -38 опасность
обморожения
1004.6 974.3
00 18.02 В 3 20 км 5/0
[Ci sp]
-31.5 -35.2 70 -41 -41 опасность
обморожения
1005.3 974.7 -32.7 32
03 18.02 штиль 0 50 км 3/0
[Ci sp]
-31.1 -34.7 70 -31 -30 опасность
обморожения
1005.8 975.2 -32.8
06 18.02 штиль 0 50 км 6/0
[Cs]
-27.8 -31.7 69 -28 -27 1005.2 975.0
09 18.02 штиль 0 20 км 10/0
[Cs]
-27.1 -30.1 76 -27 -27 1006.1 975.9
12 18.02 штиль 0 20 км 4/0
[Ci sp]
-26.5 -29.6 75 -27 -27 1006.4 976.3 -26.5
15 18.02 штиль 0 н/о н/о -30.0 -33.4 72 -30 -30 1006.7 976.2
18 18.02 З 1 н/о н/о -30.8 -34.2 72 -35 -35 опасность
обморожения
1007.1 976.5
21 18.02 З 1 н/о н/о -31.4 -34.9 71 -36 -36 опасность
обморожения
1007.6 976.9
00 19.02 СЗ 1 10 км слаб. снег 10/0
[Ac As Cs]
-31.6 -35.2 70 -36 -36 опасность
обморожения
1008.6 977.8 -32.6 0.0 34
03 19.02 штиль 0 50 км {снег} 10/0
[Cs]
-32.7 -36.4 69 -33 -32 опасность
обморожения
1009.4 978.5 -33.6
06 19.02 штиль 0 50 км {снег} 8/0
[Cs]
-29.7 -33.5 69 -30 -29 1009.8 979.2
09 19.02 З 1 50 км 6/0
[Ci fib]
-30.7 -34.3 71 -35 -35 опасность
обморожения
1011.2 980.4
12 19.02 В 1 н/о н/о -31.5 -34.9 72 -36 -36 опасность
обморожения
1012.2 981.3 -27.9
15 19.02 штиль 0 н/о н/о -32.0 -35.4 72 -32 -32 опасность
обморожения
1012.9 981.9
18 19.02 штиль 0 н/о н/о -34.6 -38.2 70 -35 -35 опасность
обморожения
1013.9 982.6
21 19.02 В 4 н/о н/о -35.5 -39.1 69 -48 -48 опасность
обморожения
1013.9 982.5
00 20.02 В 3 20 км ясно -36.3 -39.7 71 -47 -47 опасность
обморожения
1014.6 983.0 -37.4 34
03 20.02 штиль 0 50 км 3/0
[Ci fib]
-34.3 -37.8 70 -34 -34 опасность
обморожения
1014.9 983.6

 

Местоположение метеостанции Оленек (Якутия, Россия): широта 68.50 долгота 112.40 высота над уровнем моря 220 м.

В архиве по умолчанию представлена погода в Оленеке за последнюю неделю. Архивные данные за месяц целиком и за предыдущие месяцы, начиная с января 2011 года, Вы можете получить, выбрав интересующий диапазон дат из раскрывающегося списка и нажав кнопку "Ввод!".


*Определитесь, кто Вы:
робот инопланетянин человек

Внимание! Время в таблицах - всемирное. Для получения местного времени необходимо прибавить поправку, которая равна 9 ч.

Смотрите также архив погоды в соседних городах и на ближайших метеорологических станциях:

Погода в Джалинде (Якутия, Россия) (191 км)
Погода в Полярном (Якутия, Россия) (197 км)
Погода в Ярольине (Якутия, Россия) (224 км)
Погода в Сухане (Якутия, Россия) (240 км)
Погода в Шелагонцах (Якутия, Россия) (262 км)
Погода в Айхале (Якутия, Россия) (289 км)
Погода в Эйке (Якутия, Россия) (349 км)
Погода в Саскылахе (Якутия, Россия) (391 км)
Погода в Хабардино (Якутия, Россия) (434 км)
Погода в Джарджане (Якутия, Россия) (470 км)

Пояснения к столбцам:

Ветер - указаны скорость ветра в м/с - средняя за 10 мин, порывы в срок и между сроками (в фигурных скобках) и направление, откуда дует ветер: С - северный, СВ - северо-восточный, В - восточный, ЮВ - юго-восточный, Ю - южный, ЮЗ - юго-западный, З - западный, СЗ - северо-западный.
Видимость - горизонтальная дальность видимости в метрах или километрах. При видимости от 1 до 10 км при отсутствии осадков обычно наблюдается дымка, при ухудшении видимости до 1 км и менее - туман. В сухую погоду видимость может ухудшаться дымом, пылью или мглою.
Явления - указаны атмосферные явления, наблюдавшиеся в срок или в последний час перед сроком; фигурными скобками обозначены явления, наблюдавшиеся между сроками (за 1-3 часа до срока); квадратными скобками обозначены град или гололедные отложения с указанием их диаметра в мм.
Облачность - указаны через наклонную черту общая и нижняя облачность в баллах и высота нижней границы облаков в метрах; квадратными скобками обозначены формы облаков: Ci - перистые, Cs - перисто-слоистые, Cc - перисто-кучевые, Ac - высококучевые, As - высокослоистые, Sc - слоисто-кучевые, Ns - слоисто-дождевые, Cu - кучевые, Cb - кучево-дождевые. Подробнее классификацию облаков см. в Атласе облаков (PDF).
T - Температура воздуха - температура, измеренная на высоте 2 м над землей.
Td - Температура точки росы - температура, при понижении до которой содержащийся в воздухе водяной пар достигнет насыщения.
f - Относительная влажность воздуха - влажноcть воздуха, измеренная на высоте 2 м над землей.
Te - Эффективная температура - температура, которую ощущает одетый по сезону человек в тени. Характеристика душности погоды. При расчете учитывается влияние влажности воздуха и скорости ветра на теплоощущения человека.
Tes - Эффективная температура на солнце - температура, которую ощущает человек, с поправкой на солнечный нагрев. Характеристика знойности погоды. Зависит от высоты солнца над горизонтом, облачности и скорости ветра. Ночью, в пасмурную погоду, а также при ветре 12 м/с и более поправка равна нулю.
P - Атмосферное давление - приведенное к уровню моря атмосферное давление.
Po - Атмосферное давление - измеренное на уровне метеостанции атмосферное давление.
Tmin - Минимальная температура - минимум температуры воздуха на высоте 2 м над землей.
Tmax - Максимальная температура - максимум температуры воздуха на высоте 2 м над землей.
R - Количество осадков - Количество выпавших осадков за период времени, мм. При наведении курсора мыши на число - период времени, за который выпало указанное количество осадков.
R24 - Количество осадков - Количество выпавших осадков за 24 часа, мм.
S - Снежный покров - Высота снежного покрова, см. При наведении курсора мыши на число - состояние снежного покрова и степень покрытия местности в баллах.